This demonstration page uses our WeatherBlox Daily Observations layout. Learn more.

Left ArrowRight Arrow

Hourly Observations for July 21, 2022

Temp ( °F °C ) Dew Point ( °F °C ) Humidity (%) Winds ( mph kmh ) Pressure ( in mb ) Visibility ( mi km ) Precip ( " mm )
12:15 am 00:15 Clear 79 26 73 23 84 84 SSW 5 7 29.71 1006 10 16 0.00 0.00
12:35 am 00:35 Clear 79 26 73 23 84 84 Calm 29.70 1006 10 16 0.00 0.00
12:55 am 00:55 Clear 79 26 73 23 84 84 SW 3 6 29.70 1006 10 16 0.00 0.00
1:15 am 01:15 Clear 77 25 73 23 89 89 WSW 3 6 29.70 1006 10 16 0.00 0.00
1:35 am 01:35 Clear 77 25 73 23 89 89 WSW 5 7 29.70 1006 10 16 0.00 0.00
1:55 am 01:55 Clear 77 25 73 23 89 89 SW 3 6 29.70 1006 10 16 0.00 0.00
2:15 am 02:15 Partly Cloudy 77 25 73 23 89 89 Calm 29.70 1006 10 16 0.00 0.00
2:35 am 02:35 Partly Cloudy 77 25 73 23 89 89 SSW 3 6 29.69 1006 10 16 0.00 0.00
2:55 am 02:55 Clear 77 25 73 23 89 89 SSW 5 7 29.68 1005 10 16 0.00 0.00
3:15 am 03:15 Clear 77 25 73 23 89 89 SSW 5 7 29.68 1005 10 16 0.00 0.00
3:35 am 03:35 Clear 77 25 73 23 89 89 SSW 5 7 29.68 1005 10 16 0.00 0.00
3:55 am 03:55 Clear 77 25 73 23 89 89 SSW 3 6 29.68 1005 10 16 0.00 0.00
4:15 am 04:15 Clear 77 25 73 23 89 89 SW 3 6 29.67 1005 10 16 0.00 0.00
4:35 am 04:35 Clear 77 25 73 23 89 89 S 3 6 29.67 1005 10 16 0.00 0.00
4:55 am 04:55 Clear 75 24 73 23 94 94 S 5 7 29.68 1005 10 16 0.00 0.00
5:15 am 05:15 Clear 75 24 72 22 89 89 SSW 5 7 29.68 1005 10 16 0.00 0.00
5:35 am 05:35 Clear 73 23 73 23 100 100 Calm 29.68 1005 10 16 0.00 0.00
5:55 am 05:55 Clear 73 23 72 22 94 94 Calm 29.69 1005 10 16 0.00 0.00
6:15 am 06:15 Sunny 73 23 72 22 94 94 Calm 29.69 1005 10 16 0.00 0.00
6:35 am 06:35 Sunny 73 23 73 23 100 100 W 3 6 29.70 1006 10 16 0.00 0.00
6:55 am 06:55 Sunny 75 24 73 23 94 94 SW 3 6 29.71 1006 10 16 0.00 0.00
7:15 am 07:15 Sunny 77 25 73 23 89 89 WSW 6 9 29.71 1006 10 16 0.00 0.00
7:35 am 07:35 Sunny 79 26 73 23 84 84 WSW 8 13 29.71 1006 10 16 0.00 0.00
7:55 am 07:55 Sunny 79 26 73 23 84 84 WSW 6 9 29.72 1007 10 16 0.00 0.00
8:15 am 08:15 Sunny 79 26 73 23 84 84 SW 5 7 29.71 1006 10 16 0.00 0.00
8:35 am 08:35 Partly Cloudy 81 27 75 24 84 84 W 3 6 29.72 1006 10 16 0.00 0.00
8:55 am 08:55 Partly Cloudy 82 28 75 24 79 79 Calm 29.72 1006 10 16 0.00 0.00
9:15 am 09:15 Sunny 84 29 77 25 79 79 W 6 9 29.72 1006 10 16 0.00 0.00
9:35 am 09:35 Sunny 86 30 77 25 75 75 W 3 6 29.73 1007 10 16 0.00 0.00
9:55 am 09:55 Sunny 86 30 77 25 75 75 W 7 11 29.73 1007 10 16 0.00 0.00
10:15 am 10:15 Sunny 86 30 77 25 75 75 WSW 6 9 29.73 1007 10 16 0.00 0.00
10:35 am 10:35 Sunny 86 30 75 24 70 70 WSW 8 13 29.73 1007 10 16 0.00 0.00
10:55 am 10:55 Sunny 86 30 77 25 75 75 WSW 3 6 29.74 1007 10 16 0.00 0.00
11:15 am 11:15 Sunny 88 31 77 25 70 70 W 7 11 29.74 1007 10 16 0.00 0.00
11:35 am 11:35 Partly Cloudy 90 32 77 25 67 67 WNW 10 17 29.75 1007 10 16 0.00 0.00
11:55 am 11:55 Mostly Cloudy 88 31 75 24 66 66 W 7 11 29.75 1007 10 16 0.00 0.00
12:15 pm 12:15 Mostly Cloudy 90 32 75 24 63 63 NW 12 19 29.75 1007 10 16 0.00 0.00
12:35 pm 12:35 Cloudy 88 31 73 23 62 62 NNW 5 7 29.75 1007 10 16 0.00 0.00
12:55 pm 12:55 Mostly Cloudy 88 31 73 23 62 62 WNW 7 11 29.75 1007 10 16 0.00 0.00
1:15 pm 13:15 Mostly Cloudy 88 31 73 23 62 62 WNW 3 6 29.75 1007 10 16 0.00 0.00
1:35 pm 13:35 Cloudy 90 32 73 23 59 59 Calm 29.75 1007 10 16 0.00 0.00
1:55 pm 13:55 Mostly Cloudy 90 32 73 23 59 59 W 3 6 29.75 1007 10 16 0.00 0.00
2:15 pm 14:15 Mostly Cloudy 88 31 72 22 59 59 WNW 6 9 29.75 1007 10 16 0.00 0.00
2:35 pm 14:35 Partly Cloudy 91 33 73 23 56 56 WNW 7 11 29.73 1007 10 16 0.00 0.00
2:55 pm 14:55 Partly Cloudy 90 32 72 22 55 55 WNW 6 9 29.74 1007 10 16 0.00 0.00
3:15 pm 15:15 Partly Cloudy 91 33 73 23 56 56 WNW 5 7 29.73 1007 10 16 0.00 0.00
3:35 pm 15:35 Sunny 91 33 73 23 56 56 W 8 13 29.72 1007 10 16 0.00 0.00
3:55 pm 15:55 Mostly Cloudy 90 32 72 22 55 55 NW 12 19 29.72 1006 N/A 0.00 0.00
4:15 pm 16:15 Partly Cloudy 93 34 72 22 49 49 WNW 9 15 29.70 1006 10 16 0.00 0.00
4:35 pm 16:35 Partly Cloudy 91 33 70 21 49 49 NW 12 19 29.71 1006 10 16 0.00 0.00
4:55 pm 16:55 Partly Cloudy 91 33 70 21 49 49 NW 12 19 29.71 1006 N/A 0.00 0.00
5:15 pm 17:15 Sunny 91 33 68 20 46 46 WNW 13 20 29.72 1007 N/A 0.00 0.00
5:35 pm 17:35 Sunny 91 33 70 21 49 49 W 9 15 29.72 1007 10 16 0.00 0.00
5:55 pm 17:55 Sunny 91 33 68 20 46 46 W 7 11 29.72 1007 N/A 0.00 0.00
6:15 pm 18:15 Sunny 91 33 68 20 46 46 W 6 9 29.72 1007 N/A 0.00 0.00
6:35 pm 18:35 Sunny 91 33 68 20 46 46 W 6 9 29.73 1007 N/A 0.00 0.00
6:55 pm 18:55 Sunny 90 32 68 20 49 49 W 3 6 29.75 1007 N/A 0.00 0.00
7:15 pm 19:15 Sunny 90 32 68 20 49 49 W 5 7 29.76 1008 N/A 0.00 0.00
7:35 pm 19:35 Sunny 90 32 70 21 52 52 WSW 5 7 29.76 1008 N/A 0.00 0.00
7:55 pm 19:55 Sunny 88 31 70 21 55 55 Calm 29.76 1008 N/A 0.00 0.00
8:15 pm 20:15 Sunny 86 30 70 21 59 59 W 3 6 29.76 1008 N/A 0.00 0.00
8:35 pm 20:35 Clear 86 30 70 21 59 59 WSW 5 7 29.77 1008 N/A 0.00 0.00
8:55 pm 20:55 Clear 82 28 72 22 70 70 WSW 5 7 29.77 1008 N/A 0.00 0.00
9:15 pm 21:15 Clear 82 28 72 22 70 70 W 5 7 29.78 1008 N/A 0.00 0.00
9:35 pm 21:35 Clear 82 28 72 22 70 70 WSW 3 6 29.79 1009 N/A 0.00 0.00
9:55 pm 21:55 Clear 81 27 73 23 79 79 WSW 6 9 29.79 1009 N/A 0.00 0.00
10:15 pm 22:15 Clear 81 27 73 23 79 79 WSW 5 7 29.80 1009 N/A 0.00 0.00
10:35 pm 22:35 Clear 79 26 73 23 84 84 WSW 5 7 29.81 1010 N/A 0.00 0.00
10:55 pm 22:55 Clear 79 26 73 23 84 84 WSW 5 7 29.81 1010 N/A 0.00 0.00
11:15 pm 23:15 undefined 77 25 73 23 89 89 W 3 6 29.82 1010 N/A 0.00 0.00
11:35 pm 23:35 undefined 77 25 73 23 89 89 Calm 29.82 1010 N/A 0.00 0.00
11:55 pm 23:55 Clear 79 26 73 23 84 84 SW 3 6 29.83 1010 N/A 0.00 0.00

Powered by AerisWeather